GLOBALSTAR M081 [+]

Last updated on July 6, 2021, 3:36 p.m. UTC

1 37743U 11033E   21186.61173517 -.00000104  00000-0 -70435-6 0  9993
2 37743  51.9967 299.1819 0000573 101.4338   1.3151 12.62264623461676
UTC
Height (km)
Latitude
Longitude
Inclination
Orbital Period
UTC large
Height (km)
Speed (km/s)
/
Latitude / Longitude
Inclination (degrees)
Orbital Period (minutes)
Azimuth
Elevation
Range (km)
Doppler Factor
iOS Compass Heading
iOS Angle